Regional Weather Roundup
Issued by NWS

Home | Current Version | Previous Version | Graphics & Text | Print | Product List | Glossary On
Versions: 1 2 3 4 5 6 7 8 9 10 11 12 13 14 15 16 17 18 19 20 21 22 23 24 25 26 27 28 29 30 31 32 33 34 35 36 37 38 39 40 41 42 43 44 45 46 47 48 49 50
000
ASUS44 KMEG 252100
RWRTN
TENNESSEE HOURLY STATE WEATHER ROUNDUP
NATIONAL WEATHER SERVICE MEMPHIS TN
400 PM CDT SAT OCT 25 2014

TNZ002-004-019-021-049-052-054-088>092-252200-
WEST TENNESSEE

CITY           SKY/WX    TMP DP  RH WIND       PRES   REMARKS
MEMPHIS INTL   MOSUNNY   82  62  50 SW6       30.03S
NWS MEMPHIS      N/A     83 N/A N/A MISG        N/A
JACKSON        SUNNY     81  63  54 SW8       30.01F
DYERSBURG      SUNNY     81  57  44 SW8       30.02S
UNION CITY     SUNNY     79  64  61 SW5       29.99S
PARIS          SUNNY     77  63  61 SW6       30.01S
LEXINGTON      MOSUNNY   81  63  54 W8        30.00S
SAVANNAH       MOSUNNY   79  64  61 W3        30.02S
$$

TNZ008-025-027-028-033-062-065-066-252200-
NORTH MIDDLE TENNESSEE

CITY           SKY/WX    TMP DP  RH WIND       PRES   REMARKS
NASHVILLE      PTSUNNY   80  62  54 VRB3      29.99F
CLARKSVILLE    MOSUNNY   78  62  57 W10       30.00R
CROSSVILLE     PTSUNNY   68  54  60 W6        30.05F
$$

TNZ061-075-076-078-094-096-097-252200-
SOUTH MIDDLE TENNESSEE

CITY           SKY/WX    TMP DP  RH WIND       PRES   REMARKS
SHELBYVILLE    MOSUNNY   79  63  57 SW7       30.02S
$$

TNZ017-018-042-046-047-252200-
NORTHEAST TENNESSEE

CITY           SKY/WX    TMP DP  RH WIND       PRES   REMARKS
TRI CITIES     MOSUNNY   68  47  46 W8        30.02R
ELIZABETHTON   PTCLDY    64  46  52 NW6       30.02S
$$

TNZ012-013-036-069-073-074-252200-
CENTRAL EAST TENNESSEE

CITY           SKY/WX    TMP DP  RH WIND       PRES   REMARKS
KNOXVILLE      MOSUNNY   69  48  47 W5        30.01F
OAK RIDGE      MOSUNNY   72  50  45 VRB5      30.02F
$$

TNZ083-085-099-252200-
SOUTHEAST TENNESSEE

CITY           SKY/WX    TMP DP  RH WIND       PRES   REMARKS
CHATTANOOGA    MOSUNNY   77  52  41 CALM      30.02R
$$

SKY/WX REPORTED AS FAIR MEANS FEW OR NO CLOUDS BELOW
12 THOUSAND FEET.




USA.gov is the U.S. government's official web portal to all federal, state and local government web resources and services.